Stündliche Wetter Bolshie Pischevicy

Heute, 23 Januar, Samstag

Zeit Temperatur Niederschläge Wind Luftdruck Luftfeuchtigkeit
00:00 -1°C° 0 mm 4 m/S 743 mmHg 95%
01:00 0°C° 0 mm 3 m/S 743 mmHg 96%
02:00 0°C° 0 mm 3 m/S 743 mmHg 96%
03:00 0°C° 0 mm 3 m/S 743 mmHg 97%
04:00 0°C° 0 mm 3 m/S 743 mmHg 97%
05:00 +1°C° 0 mm 2 m/S 743 mmHg 97%
06:00 +1°C° 0.1 mm 2 m/S 743 mmHg 97%
07:00 +1°C° 0.1 mm 2 m/S 743 mmHg 98%
08:00 +1°C° 0.1 mm 2 m/S 743 mmHg 98%
09:00 +1°C° 0 mm 2 m/S 744 mmHg 98%
10:00 +1°C° 0 mm 2 m/S 744 mmHg 99%
11:00 +2°C° 0 mm 2 m/S 745 mmHg 99%
12:00 +2°C° 0 mm 2 m/S 745 mmHg 99%
13:00 +2°C° 0 mm 2 m/S 746 mmHg 99%
14:00 +1°C° 0 mm 2 m/S 746 mmHg 99%
15:00 +1°C° 0 mm 2 m/S 746 mmHg 99%
16:00 +1°C° 0 mm 2 m/S 746 mmHg 98%
17:00 +2°C° 0 mm 1 m/S 746 mmHg 98%
18:00 +1°C° 0 mm 2 m/S 746 mmHg 97%
19:00 +1°C° 0 mm 2 m/S 746 mmHg 97%
20:00 +1°C° 0 mm 2 m/S 746 mmHg 96%
21:00 +1°C° 0 mm 2 m/S 746 mmHg 96%
22:00 +1°C° 0 mm 2 m/S 746 mmHg 96%
23:00 0°C° 0 mm 3 m/S 746 mmHg 96%

Morgen, 24 Januar, Sonntag

Zeit Temperatur Niederschläge Wind Luftdruck Luftfeuchtigkeit
00:00 0°C° 0 mm 3 m/S 745 mmHg 97%
01:00 +1°C° 0 mm 3 m/S 745 mmHg 97%
02:00 +1°C° 0 mm 3 m/S 745 mmHg 97%
03:00 +1°C° 0.3 mm 3 m/S 745 mmHg 97%
04:00 +1°C° 0.3 mm 3 m/S 744 mmHg 96%
05:00 0°C° 0.3 mm 4 m/S 744 mmHg 96%
06:00 +1°C° 0 mm 3 m/S 744 mmHg 96%
07:00 +1°C° 0 mm 3 m/S 744 mmHg 95%
08:00 +1°C° 0 mm 3 m/S 744 mmHg 95%
09:00 +1°C° 0 mm 3 m/S 744 mmHg 95%
10:00 +1°C° 0 mm 3 m/S 744 mmHg 95%
11:00 0°C° 0 mm 4 m/S 744 mmHg 95%
12:00 0°C° 0 mm 4 m/S 744 mmHg 95%
13:00 0°C° 0 mm 4 m/S 744 mmHg 96%
14:00 0°C° 0 mm 4 m/S 744 mmHg 96%
15:00 +1°C° 0 mm 3 m/S 743 mmHg 96%
16:00 +1°C° 0 mm 3 m/S 743 mmHg 96%
17:00 +2°C° 0 mm 2 m/S 743 mmHg 96%
18:00 +1°C° 0.1 mm 3 m/S 743 mmHg 97%
19:00 +1°C° 0.1 mm 3 m/S 742 mmHg 97%
20:00 +1°C° 0.1 mm 3 m/S 742 mmHg 97%
21:00 +2°C° 0.2 mm 3 m/S 742 mmHg 96%
22:00 +1°C° 0.2 mm 4 m/S 741 mmHg 96%
23:00 +1°C° 0.2 mm 4 m/S 741 mmHg 95%

übermorgen, 25 Januar, Montag

Zeit Temperatur Niederschläge Wind Luftdruck Luftfeuchtigkeit
00:00 +1°C° 0.1 mm 4 m/S 740 mmHg 95%
01:00 +1°C° 0.1 mm 4 m/S 740 mmHg 95%
02:00 +1°C° 0.1 mm 4 m/S 740 mmHg 94%
03:00 +1°C° 0 mm 4 m/S 739 mmHg 94%
04:00 +1°C° 0 mm 4 m/S 739 mmHg 94%
05:00 +1°C° 0 mm 4 m/S 738 mmHg 93%
06:00 +1°C° 0.3 mm 4 m/S 738 mmHg 94%
07:00 +2°C° 0.3 mm 3 m/S 738 mmHg 96%
08:00 +1°C° 0.3 mm 3 m/S 738 mmHg 97%
09:00 +1°C° 0.4 mm 3 m/S 739 mmHg 97%
10:00 +1°C° 0.4 mm 3 m/S 739 mmHg 97%
11:00 +2°C° 0.4 mm 3 m/S 740 mmHg 97%
12:00 0°C° 0.4 mm 4 m/S 741 mmHg 96%
13:00 0°C° 0.4 mm 4 m/S 741 mmHg 95%
14:00 0°C° 0.4 mm 4 m/S 742 mmHg 94%
15:00 -1°C° 0 mm 4 m/S 743 mmHg 91%
16:00 -1°C° 0 mm 4 m/S 744 mmHg 89%
17:00 0°C° 0 mm 3 m/S 745 mmHg 86%
18:00 0°C° 0 mm 3 m/S 745 mmHg 87%
19:00 0°C° 0 mm 3 m/S 746 mmHg 87%
20:00 0°C° 0 mm 3 m/S 746 mmHg 87%
21:00 -1°C° 0 mm 3 m/S 747 mmHg 88%
22:00 -1°C° 0 mm 2 m/S 747 mmHg 88%
23:00 -1°C° 0 mm 2 m/S 747 mmHg 88%

26 Januar, Dienstag

Zeit Temperatur Niederschläge Wind Luftdruck Luftfeuchtigkeit
00:00 -1°C° 0 mm 2 m/S 747 mmHg 90%
01:00 +1°C° 0 mm 1 m/S 747 mmHg 91%
02:00 0°C° 0 mm 1 m/S 747 mmHg 93%
03:00 0°C° 0 mm 1 m/S 747 mmHg 93%
04:00 0°C° 0 mm 1 m/S 747 mmHg 93%
05:00 0°C° 0 mm 1 m/S 746 mmHg 93%
06:00 -2°C° 0 mm 2 m/S 746 mmHg 94%
07:00 -1°C° 0 mm 2 m/S 746 mmHg 94%
08:00 -1°C° 0 mm 3 m/S 745 mmHg 95%
09:00 0°C° 0.4 mm 3 m/S 745 mmHg 96%
10:00 0°C° 0.4 mm 3 m/S 744 mmHg 97%
11:00 0°C° 0.4 mm 3 m/S 744 mmHg 97%
12:00 +1°C° 0.4 mm 3 m/S 743 mmHg 97%
13:00 +1°C° 0.4 mm 3 m/S 743 mmHg 97%
14:00 +1°C° 0.4 mm 3 m/S 742 mmHg 97%
15:00 +1°C° 0.6 mm 3 m/S 742 mmHg 97%
16:00 +1°C° 0.6 mm 3 m/S 742 mmHg 97%
17:00 +1°C° 0.6 mm 3 m/S 742 mmHg 97%
18:00 0°C° 0.8 mm 3 m/S 742 mmHg 97%
19:00 0°C° 0.8 mm 3 m/S 741 mmHg 97%
20:00 +1°C° 0.8 mm 2 m/S 741 mmHg 97%
21:00 +1°C° 0 mm 2 m/S 741 mmHg 97%
22:00 +1°C° 0 mm 2 m/S 741 mmHg 96%
23:00 +1°C° 0 mm 2 m/S 741 mmHg 95%

27 Januar, Mittwoch

Zeit Temperatur Niederschläge Wind Luftdruck Luftfeuchtigkeit
00:00 +1°C° 0 mm 2 m/S 740 mmHg 96%
01:00 +1°C° 0 mm 2 m/S 740 mmHg 96%
02:00 -1°C° 0 mm 2 m/S 740 mmHg 97%
03:00 -1°C° 0.1 mm 2 m/S 739 mmHg 97%
04:00 -1°C° 0.1 mm 2 m/S 739 mmHg 98%
05:00 -1°C° 0.1 mm 2 m/S 739 mmHg 98%
06:00 -1°C° 0.4 mm 2 m/S 738 mmHg 98%
07:00 -1°C° 0.4 mm 2 m/S 738 mmHg 98%
08:00 -1°C° 0.4 mm 2 m/S 738 mmHg 98%
09:00 -1°C° 0.7 mm 2 m/S 738 mmHg 98%
10:00 -1°C° 0.7 mm 2 m/S 738 mmHg 98%
11:00 -1°C° 0.7 mm 2 m/S 738 mmHg 98%
12:00 -1°C° 0.5 mm 2 m/S 738 mmHg 98%
13:00 -1°C° 0.5 mm 2 m/S 738 mmHg 98%
14:00 -1°C° 0.5 mm 2 m/S 738 mmHg 98%
15:00 -1°C° 0.4 mm 2 m/S 738 mmHg 98%
16:00 -1°C° 0.4 mm 2 m/S 738 mmHg 98%
17:00 -1°C° 0.4 mm 2 m/S 739 mmHg 98%
18:00 -1°C° 0.2 mm 2 m/S 739 mmHg 98%
19:00 -1°C° 0.2 mm 2 m/S 739 mmHg 98%
20:00 -1°C° 0.2 mm 2 m/S 739 mmHg 98%
21:00 -1°C° 0.1 mm 2 m/S 740 mmHg 98%
22:00 +1°C° 0.1 mm 1 m/S 740 mmHg 98%
23:00 0°C° 0.1 mm 1 m/S 741 mmHg 97%

28 Januar, Donnerstag

Zeit Temperatur Niederschläge Wind Luftdruck Luftfeuchtigkeit
00:00 0°C° 0.2 mm 1 m/S 741 mmHg 97%
01:00 0°C° 0.2 mm 1 m/S 741 mmHg 98%
02:00 0°C° 0.2 mm 1 m/S 742 mmHg 98%
03:00 0°C° 0.2 mm 1 m/S 742 mmHg 98%
04:00 0°C° 0.2 mm 1 m/S 742 mmHg 98%
05:00 0°C° 0.2 mm 1 m/S 743 mmHg 98%
06:00 0°C° 0.1 mm 1 m/S 743 mmHg 97%
07:00 -1°C° 0.1 mm 1 m/S 743 mmHg 97%
08:00 -1°C° 0.1 mm 1 m/S 744 mmHg 97%
09:00 -1°C° 0 mm 1 m/S 744 mmHg 96%
10:00 -1°C° 0 mm 1 m/S 744 mmHg 95%
11:00 0°C° 0 mm 1 m/S 745 mmHg 94%
12:00 0°C° 0 mm 1 m/S 745 mmHg 94%
13:00 0°C° 0 mm 1 m/S 745 mmHg 93%
14:00 0°C° 0 mm 1 m/S 745 mmHg 93%
15:00 0°C° 0.1 mm 1 m/S 746 mmHg 95%
16:00 -1°C° 0.1 mm 1 m/S 746 mmHg 96%
17:00 -1°C° 0.1 mm 1 m/S 746 mmHg 97%
18:00 -1°C° 0 mm 1 m/S 747 mmHg 97%
19:00 -3°C° 0 mm 0 m/S 747 mmHg 97%
20:00 -3°C° 0 mm 0 m/S 747 mmHg 96%
Mehr zeigen

Wir brauchen deine Erlaubnis

Meteoprog und unser Service Anbieter werden persönliche Daten aufbewahren, so wie Cookies, Geräte Bezeichnung oder ähnliche Technologien von deinem Gerät und Prozess, so wie Persönliche Daten Inhalte und Werbungen, genauso wie social Media und den Verkehr zu analysieren.

  • Aufbewahrung und/oder Zugang zu deiner Geräte Informationen.

    Cookies, Geräte Bezeichnung oder andere Informationen, können aufbewahrt oder Zugang zu deinem Gerät erhalten, für den Grund, der oben angegeben wird.

  • Personalisierte Werbung und Inhalte, Messungen, Einblick in das Publikum und Produkt Entwicklung.

    Werbungen und Inhalte können personalisiert werden, basierend auf ein Profil. Mehr Daten können besser personalisierte Werbungen und Inhalte hinzufügen. Werbung und Inhalte können gezeigt und gemessen werden. Einblicke über das Publikum, welche die Werbung gesehen haben und den Inhalt, können abgeleitet werden. So wie Daten können genutzt werden, um es zu verbessern oder die Benutzer Erfahrung zu verbessern das System und die Software.

Wenn du “Ich stimme zu” klickst, erlaubst du uns, die Cookies zu benutzen die Geräte Bezeichnung, den Web oder ähnliche Technologien zu benutzen. Deine Settings, können in deinem Gerät bei deinem Browser geändert werden.

Für den bestimmten Zweck, berechtigten Interessen beruhen darauf, mehr als auf den Inhalt. Du kannst mehr darüber in unseren Privaten und Cookie Politik lesen.